Weather reports worldwide

Advertisment
Lossiemouth, United Kingdom (3068): temperature & dewpoint: 17.04.2018 14:00:00 - 23.04.2018 14:00:00 (BST)Lossiemouth, United Kingdom (3068): wind speed & gusts: 17.04.2018 14:00:00 - 23.04.2018 14:00:00 (BST)Lossiemouth, United Kingdom (3068): wind direction: 17.04.2018 14:00:00 - 23.04.2018 14:00:00 (BST)Lossiemouth, United Kingdom (3068): reduced air pressure: 17.04.2018 14:00:00 - 23.04.2018 14:00:00 (BST)Lossiemouth, United Kingdom (3068): visibility: 17.04.2018 14:00:00 - 23.04.2018 14:00:00 (BST)Lossiemouth, United Kingdom (3068): precipitation: 17.04.2018 14:00:00 - 23.04.2018 14:00:00 (BST)
Date & Time tt [°C] td [°C] ff [km/h] ff [kn] fx [km/h] fx [kn] dd ppp [hPa] vv [km] rr [mm]
23.04.2018 14:00:00 12,0 5,3 28 15 50 27 W 1003,4 60 0,0
23.04.2018 13:00:00 12,4 6,2 34 18 48 26 W 1003,5 40 0,0
23.04.2018 12:00:00 11,5 6,1 26 14 46 25 W 1003,6 60 0,0
23.04.2018 11:00:00 11,8 6,0 35 19 48 26 W 1003,1 25 0,0
23.04.2018 10:00:00 10,6 6,2 22 12 - - WSW 1002,9 30 0,0
23.04.2018 09:00:00 9,4 6,8 15 8 - - W 1002,8 50 0,0
23.04.2018 08:00:00 8,4 6,6 24 13 - - W 1002,3 15 0,0
23.04.2018 07:00:00 8,8 6,8 26 14 - - W 1001,2 20 0,0
23.04.2018 06:00:00 9,0 6,2 24 13 - - W 1000,0 40 0,0
23.04.2018 05:00:00 8,9 6,0 29 16 - - WSW 999,4 40 0,0
23.04.2018 04:00:00 8,7 6,1 22 12 - - WSW 999,2 40 0,0
23.04.2018 03:00:00 8,6 5,5 18 10 - - WSW 998,8 35 0,0
23.04.2018 02:00:00 7,0 4,8 9 5 - - SW 998,8 45 0,0
23.04.2018 01:00:00 8,0 5,2 13 7 - - SW 998,8 10 0,0
23.04.2018 00:00:00 9,4 5,8 22 12 - - SW 998,7 10 0,0
22.04.2018 23:00:00 9,4 5,2 18 10 - - SSW 999,2 10 0,0
22.04.2018 22:00:00 9,8 5,0 16 9 - - SSW 999,4 10 0,0
22.04.2018 21:00:00 9,4 4,7 9 5 - - SSW 999,6 10 0,0
22.04.2018 20:00:00 10,3 5,4 11 6 - - WSW 999,6 40 0,0
22.04.2018 19:00:00 11,6 4,9 26 14 - - WSW 999,6 60 0,0
22.04.2018 18:00:00 11,5 6,2 24 13 - - W 999,6 50 0,0
22.04.2018 17:00:00 10,8 7,2 26 14 50 27 W 999,8 50 0,0
22.04.2018 16:00:00 12,7 6,7 28 15 - - WSW 999,3 50 0,0
22.04.2018 15:00:00 12,4 7,9 21 11 - - SW 999,4 50 0,0
22.04.2018 14:00:00 11,4 8,3 16 9 - - W 999,6 50 0,2
22.04.2018 13:00:00 10,9 7,5 21 11 - - W 999,9 10 0,0
22.04.2018 12:00:00 12,3 6,0 21 11 - - W 999,8 10 0,0
22.04.2018 11:00:00 12,9 7,9 11 6 - - WSW 1000,3 10 0,0
22.04.2018 10:00:00 12,1 7,9 13 7 - - W 1001,0 10 0,0
22.04.2018 09:00:00 10,3 8,3 2 1 - - SW 1001,0 10 0,0
22.04.2018 08:00:00 9,2 7,8 4 2 - - WSW 1001,6 10 0,0
22.04.2018 07:00:00 8,9 7,1 4 2 - - S 1001,7 22 0,0
22.04.2018 06:00:00 9,1 7,1 8 4 - - ESE 1002,1 22 0,0
22.04.2018 05:00:00 9,5 7,2 9 5 - - SE 1003,1 20 0,0
22.04.2018 04:00:00 9,8 7,3 13 7 - - ESE 1004,4 18 0,0
22.04.2018 03:00:00 10,2 6,7 11 6 - - ESE 1005,1 30 0,0
22.04.2018 02:00:00 10,3 6,7 8 4 - - SE 1006,5 25 0,0
22.04.2018 01:00:00 11,2 6,8 13 7 - - ESE 1007,8 10 0,0
22.04.2018 00:00:00 11,6 6,7 16 9 - - SE 1008,6 10 0,0
21.04.2018 23:00:00 12,4 6,7 21 11 - - SSE 1009,5 10 0,0
21.04.2018 22:00:00 12,5 6,6 24 13 - - SSE 1010,4 10 0,0
21.04.2018 21:00:00 11,9 5,8 11 6 - - ESE 1011,0 10 0,0
21.04.2018 20:00:00 12,2 6,8 11 6 - - E 1011,7 10 0,0
21.04.2018 19:00:00 13,7 6,3 11 6 - - E 1012,5 75 0,0
21.04.2018 18:00:00 14,1 7,0 8 4 - - NE 1013,1 50 0,0
21.04.2018 17:00:00 15,1 7,1 13 7 - - E 1013,8 75 0,0
21.04.2018 16:00:00 13,4 6,5 21 11 - - E 1014,7 75 0,0
21.04.2018 15:00:00 14,0 6,6 16 9 - - ENE 1015,6 75 0,0
21.04.2018 14:00:00 13,1 8,1 16 9 - - NE 1016,7 75 0,0
21.04.2018 13:00:00 15,1 5,8 9 5 - - S 1017,4 10 0,0
21.04.2018 12:00:00 14,3 5,8 13 7 - - S 1018,5 10 0,0
21.04.2018 11:00:00 12,2 5,2 5 3 - - SSE 1019,4 10 0,0
21.04.2018 10:00:00 12,0 5,0 15 8 - - S 1019,9 10 0,0
21.04.2018 09:00:00 10,2 5,5 11 6 - - SSE 1020,5 10 0,0
21.04.2018 08:00:00 8,4 4,6 11 6 - - S 1020,9 75 0,0
21.04.2018 07:00:00 4,9 3,2 13 7 - - S 1021,0 50 0,0
21.04.2018 06:00:00 3,1 1,3 4 2 - - SSW 1021,1 50 0,0
21.04.2018 05:00:00 3,2 1,4 4 2 - - S 1021,2 50 0,0
21.04.2018 04:00:00 4,2 2,2 5 3 - - W 1021,4 50 0,0
21.04.2018 03:00:00 5,0 2,7 13 7 - - WSW 1021,7 50 0,0
21.04.2018 02:00:00 5,4 3,2 15 8 - - SW 1022,0 50 0,0
21.04.2018 01:00:00 4,5 2,5 11 6 - - WSW 1022,1 10 0,0
21.04.2018 00:00:00 6,0 3,6 18 10 - - WSW 1022,1 10 0,0
20.04.2018 23:00:00 6,6 4,3 16 9 - - SW 1021,8 10 0,0
20.04.2018 22:00:00 8,3 4,8 15 8 - - W 1021,7 10 0,0
20.04.2018 21:00:00 9,8 5,2 21 11 - - W 1021,4 10 0,0
20.04.2018 20:00:00 10,9 5,5 24 13 - - W 1021,0 10 0,0
20.04.2018 19:00:00 10,9 7,1 31 17 - - W 1020,4 30 0,0
20.04.2018 18:00:00 13,3 7,8 28 15 - - WSW 1019,9 50 0,0
20.04.2018 17:00:00 12,4 7,5 34 18 48 26 W 1020,0 25 0,0
20.04.2018 16:00:00 14,5 6,8 31 17 48 26 W 1019,5 45 0,0
20.04.2018 15:00:00 14,8 6,6 26 14 48 26 W 1019,3 45 0,0
20.04.2018 14:00:00 15,2 8,0 31 17 50 27 W 1019,4 50 0,0
20.04.2018 13:00:00 14,5 7,3 29 16 - - W 1019,4 10 0,0
20.04.2018 12:00:00 16,3 7,4 34 18 54 29 W 1019,2 10 0,0
20.04.2018 11:00:00 14,7 5,9 29 16 46 25 WSW 1019,6 10 0,0
20.04.2018 10:00:00 13,9 6,3 29 16 - - WSW 1019,6 10 0,0
20.04.2018 09:00:00 12,7 7,0 22 12 - - SW 1019,6 50 0,0
20.04.2018 08:00:00 10,2 7,8 11 6 - - SW 1019,7 50 0,0
20.04.2018 07:00:00 7,1 5,9 9 5 - - SW 1020,1 50 0,0
20.04.2018 06:00:00 7,9 6,6 8 4 - - S 1020,2 70 0,0
20.04.2018 05:00:00 6,8 5,9 9 5 - - WSW 1020,4 60 0,0
20.04.2018 04:00:00 6,7 5,8 8 4 - - SSW 1020,7 60 0,0
20.04.2018 03:00:00 6,3 5,1 8 4 - - SW 1020,9 60 0,0
20.04.2018 02:00:00 8,4 7,2 4 2 - - SSW 1021,3 60 0,0
20.04.2018 01:00:00 8,2 6,8 5 3 - - SSW 1021,7 60 0,0
20.04.2018 00:00:00 8,1 6,6 8 4 - - SW 1021,9 70 0,0
19.04.2018 23:00:00 9,2 7,3 5 3 - - WSW 1021,9 70 0,0
19.04.2018 22:00:00 10,3 7,6 8 4 - - SW 1021,8 75 0,0
19.04.2018 21:00:00 13,3 8,5 13 7 - - W 1021,5 75 0,0
19.04.2018 20:00:00 14,8 8,6 21 11 - - W 1020,9 75 0,0
19.04.2018 19:00:00 16,9 8,8 24 13 - - W 1020,5 50 0,0
19.04.2018 18:00:00 18,7 9,5 21 11 - - WSW 1020,3 10 0,0
19.04.2018 17:00:00 18,7 9,9 22 12 - - WSW 1020,0 10 0,0
19.04.2018 16:00:00 18,4 10,8 24 13 - - W 1019,9 10 0,0
19.04.2018 15:00:00 18,5 10,7 24 13 - - W 1020,0 10 0,0
19.04.2018 14:00:00 17,2 10,6 21 11 - - W 1019,9 10 0,0
19.04.2018 13:00:00 15,9 10,2 22 12 - - WNW 1019,7 10 0,0
19.04.2018 12:00:00 15,4 10,4 11 6 - - NW 1019,5 10 0,0
19.04.2018 11:00:00 16,9 10,4 13 7 - - WSW 1019,3 10 0,0
19.04.2018 10:00:00 16,2 10,0 18 10 - - WSW 1018,9 10 0,0
19.04.2018 09:00:00 15,6 9,9 15 8 - - SW 1018,5 50 -
19.04.2018 08:00:00 13,8 9,5 8 4 - - SW 1017,9 10 -
19.04.2018 07:00:00 14,2 9,1 13 7 - - SSW 1017,5 10 -
19.04.2018 06:00:00 14,3 8,9 16 9 - - SW 1017,2 10 -
19.04.2018 05:00:00 14,6 8,6 18 10 - - SSW 1017,0 10 -
19.04.2018 04:00:00 15,0 9,3 15 8 - - S 1016,7 30 -
19.04.2018 03:00:00 16,2 9,5 21 11 - - S 1016,6 35 -
19.04.2018 02:00:00 17,1 9,9 28 15 48 26 S 1016,9 10 0,0
19.04.2018 01:00:00 14,7 10,1 13 7 - - E 1017,3 10 0,0
19.04.2018 00:00:00 14,1 9,6 16 9 - - E 1017,7 10 0,0
18.04.2018 23:00:00 14,7 9,1 21 11 - - ESE 1017,9 10 0,0
18.04.2018 22:00:00 16,0 8,6 26 14 - - SSE 1018,4 10 0,0
18.04.2018 21:00:00 16,3 8,8 22 12 - - S 1018,3 10 0,0
18.04.2018 20:00:00 16,7 9,1 21 11 - - S 1018,2 10 0,0
18.04.2018 19:00:00 16,6 10,2 15 8 - - S 1018,7 10 0,0
18.04.2018 18:00:00 17,2 9,4 28 15 - - S 1018,8 10 0,0
18.04.2018 17:00:00 17,9 8,5 22 12 - - S 1018,7 10 0,0
18.04.2018 16:00:00 18,0 8,4 26 14 - - SW 1018,8 10 0,0
18.04.2018 15:00:00 18,3 7,8 34 18 48 26 SSW 1018,9 10 0,0
18.04.2018 14:00:00 17,2 8,0 28 15 - - SW 1019,2 10 0,0
18.04.2018 13:00:00 17,1 8,4 24 13 - - SW 1018,7 10 0,0
18.04.2018 12:00:00 16,0 8,6 13 7 - - S 1018,6 10 0,0
18.04.2018 11:00:00 15,2 7,8 18 10 - - S 1018,3 10 0,0
18.04.2018 10:00:00 15,1 8,0 15 8 - - SSW 1017,5 10 0,0
18.04.2018 09:00:00 14,0 7,8 11 6 - - SSE 1017,1 10 0,0
18.04.2018 08:00:00 11,7 7,1 9 5 - - ENE 1016,7 10 0,0
18.04.2018 07:00:00 9,8 6,8 9 5 - - NE 1016,0 10 0,0
18.04.2018 06:00:00 8,5 5,8 11 6 - - S 1014,8 10 0,0
18.04.2018 05:00:00 10,0 6,3 13 7 - - SE 1014,5 10 0,0
18.04.2018 04:00:00 10,5 6,7 13 7 - - SE 1014,2 10 0,0
18.04.2018 03:00:00 10,1 6,9 15 8 - - SSE 1013,9 10 0,0
18.04.2018 02:00:00 9,0 6,7 5 3 - - SW 1013,2 10 0,0
18.04.2018 01:00:00 11,0 6,6 15 8 - - S 1012,1 10 0,0
18.04.2018 00:00:00 11,4 7,0 22 12 - - S 1011,4 10 0,0
17.04.2018 23:00:00 11,0 6,6 13 7 - - SSW 1010,5 10 0,0
17.04.2018 22:00:00 11,3 6,4 15 8 - - SSW 1009,3 10 0,0
17.04.2018 21:00:00 13,5 7,0 24 13 - - SSW 1008,4 10 0,0
17.04.2018 20:00:00 13,8 7,7 28 15 50 27 SW 1007,2 10 0,0
17.04.2018 19:00:00 15,5 7,9 37 20 57 31 SSW 1006,4 10 0,0
17.04.2018 18:00:00 16,1 7,1 34 18 57 31 SW 1005,0 10 0,0
17.04.2018 17:00:00 17,2 7,1 39 21 54 29 SW 1004,1 10 0,0
17.04.2018 16:00:00 18,0 7,3 37 20 57 31 SW 1003,9 10 0,0
17.04.2018 15:00:00 17,6 6,5 37 20 52 28 SW 1003,5 10 0,0
17.04.2018 14:00:00 16,1 5,8 35 19 63 34 SSW 1003,1 10 0,0

tt = temperature
td = dewpoint
ff = wind speed
fx = gusts
dd = wind direction
ppp = reduced air pressure
vv = visibility
rr = precipitation

Next stations